DLH648 UAAA-UACC

Flight info

Callsign DLH648
Flight time N/A
Altitude 40000
Route ETEDA1B ETEDA W333 BANOS BANOS1D
Aircraft A346/H-SDE2E3FGHIJ3J4J5M1RWXY/LB1D1

Departure

Time N/A
Airport Almaty International Airport (UAAA)

Arrival

Time 2026-04-27 17:48
Airport Nursultan Nazarbayev International Airport (UACC)
Time Latitude Longitude Altitude Speed Heading
2026-04-27 16:44 45.03874 76.12282 39965 ft 448 kts 331°
2026-04-27 16:44 45.06750 76.10562 40078 ft 449 kts 331°
2026-04-27 16:44 45.09628 76.08840 40079 ft 450 kts 331°
2026-04-27 16:45 45.15398 76.05382 40091 ft 451 kts 331°
2026-04-27 16:45 45.21178 76.01909 40080 ft 451 kts 331°
2026-04-27 16:46 45.26922 75.98450 40079 ft 451 kts 331°
2026-04-27 16:46 45.32702 75.94960 40104 ft 452 kts 331°
2026-04-27 16:47 45.38510 75.91444 40091 ft 454 kts 331°
2026-04-27 16:47 45.44327 75.87917 40091 ft 454 kts 331°
2026-04-27 16:48 45.50183 75.84357 40108 ft 454 kts 331°
2026-04-27 16:48 45.56005 75.80809 40099 ft 455 kts 331°
2026-04-27 16:49 45.64742 75.75470 40101 ft 455 kts 331°
2026-04-27 16:49 45.70570 75.71895 40109 ft 456 kts 331°
2026-04-27 16:50 45.76406 75.68316 40104 ft 457 kts 331°
2026-04-27 16:50 45.82248 75.64728 40101 ft 457 kts 331°
2026-04-27 16:51 45.88085 75.61131 40113 ft 457 kts 331°
2026-04-27 16:51 45.93926 75.57521 40105 ft 457 kts 331°
2026-04-27 16:52 45.99774 75.53899 40106 ft 457 kts 331°
2026-04-27 16:52 46.05614 75.50275 40131 ft 457 kts 331°
2026-04-27 16:53 46.11462 75.46632 40113 ft 458 kts 332°
2026-04-27 16:53 46.17309 75.42986 40109 ft 458 kts 332°
2026-04-27 16:54 46.22169 75.39948 40108 ft 458 kts 332°
2026-04-27 16:54 46.28028 75.36309 40109 ft 458 kts 332°
2026-04-27 16:55 46.33884 75.32672 40111 ft 458 kts 332°
2026-04-27 16:55 46.39740 75.29021 40111 ft 458 kts 332°
2026-04-27 16:56 46.45594 75.25360 40124 ft 459 kts 332°
2026-04-27 16:56 46.51457 75.21684 40125 ft 459 kts 332°
2026-04-27 16:57 46.57320 75.18002 40115 ft 459 kts 332°
2026-04-27 16:57 46.63185 75.14310 40132 ft 459 kts 332°
2026-04-27 16:58 46.69054 75.10604 40129 ft 460 kts 332°
2026-04-27 16:58 46.74923 75.06891 40137 ft 460 kts 332°
2026-04-27 16:59 46.80792 75.03167 40130 ft 460 kts 332°
2026-04-27 16:59 46.86623 74.99457 40135 ft 460 kts 332°
2026-04-27 17:00 46.95614 74.94349 40140 ft 463 kts 335°
2026-04-27 17:01 47.01641 74.91044 40162 ft 463 kts 335°
2026-04-27 17:01 47.07670 74.87718 40158 ft 463 kts 335°
2026-04-27 17:02 47.13703 74.84379 40164 ft 463 kts 335°
2026-04-27 17:02 47.19729 74.81033 40163 ft 463 kts 335°
2026-04-27 17:03 47.25761 74.77672 40177 ft 464 kts 335°
2026-04-27 17:03 47.31805 74.74301 40178 ft 464 kts 335°
2026-04-27 17:04 47.37848 74.70922 40184 ft 464 kts 335°
2026-04-27 17:04 47.43888 74.67532 40186 ft 465 kts 335°
2026-04-27 17:05 47.49933 74.64135 40201 ft 465 kts 335°
2026-04-27 17:05 47.55981 74.60734 40205 ft 465 kts 335°
2026-04-27 17:06 47.62062 74.57334 40218 ft 465 kts 335°
2026-04-27 17:06 47.68115 74.53937 40209 ft 465 kts 335°
2026-04-27 17:07 47.74162 74.50536 40213 ft 465 kts 335°
2026-04-27 17:07 47.80211 74.47122 40221 ft 465 kts 335°
2026-04-27 17:08 47.86219 74.43720 40234 ft 465 kts 335°
2026-04-27 17:08 47.92268 74.40290 40228 ft 465 kts 335°
2026-04-27 17:09 47.98314 74.36852 40230 ft 465 kts 335°
2026-04-27 17:09 48.04351 74.33404 40230 ft 464 kts 336°
2026-04-27 17:10 48.10370 74.29964 40240 ft 463 kts 336°
2026-04-27 17:10 48.16390 74.26535 40231 ft 463 kts 336°
2026-04-27 17:11 48.22419 74.23131 40243 ft 463 kts 336°
2026-04-27 17:11 48.31455 74.18007 40238 ft 463 kts 336°
2026-04-27 17:12 48.40490 74.12858 40243 ft 463 kts 336°
2026-04-27 17:13 48.46507 74.09417 40259 ft 462 kts 336°
2026-04-27 17:13 48.52523 74.05968 40256 ft 462 kts 336°
2026-04-27 17:14 48.58537 74.02512 40258 ft 462 kts 336°
2026-04-27 17:14 48.64546 73.99049 40273 ft 462 kts 336°
2026-04-27 17:15 48.70551 73.95579 40269 ft 462 kts 336°
2026-04-27 17:15 48.76551 73.92103 40267 ft 461 kts 336°
2026-04-27 17:16 48.82550 73.88619 40267 ft 461 kts 336°
2026-04-27 17:16 48.88543 73.85128 40272 ft 461 kts 336°
2026-04-27 17:17 48.94492 73.81653 40109 ft 461 kts 336°
2026-04-27 17:17 48.97521 73.79882 39868 ft 459 kts 336°
2026-04-27 17:17 49.00487 73.78145 39641 ft 456 kts 336°
2026-04-27 17:18 49.06386 73.74674 39180 ft 456 kts 336°
2026-04-27 17:18 49.09362 73.72916 38296 ft 461 kts 336°
2026-04-27 17:18 49.12327 73.71162 37556 ft 462 kts 336°
2026-04-27 17:18 49.15295 73.69407 37303 ft 453 kts 336°
2026-04-27 17:19 49.18214 73.67681 37036 ft 448 kts 336°
2026-04-27 17:19 49.21120 73.65956 36791 ft 448 kts 336°
2026-04-27 17:19 49.24028 73.64227 36534 ft 448 kts 336°
2026-04-27 17:19 49.26935 73.62496 36294 ft 448 kts 336°
2026-04-27 17:20 49.29842 73.60762 36044 ft 448 kts 336°
2026-04-27 17:20 49.32746 73.59030 35792 ft 448 kts 336°
2026-04-27 17:20 49.35651 73.57296 35556 ft 448 kts 336°
2026-04-27 17:20 49.38558 73.55558 35316 ft 448 kts 336°
2026-04-27 17:21 49.41464 73.53818 35076 ft 448 kts 336°
2026-04-27 17:21 49.44366 73.52077 34840 ft 448 kts 336°
2026-04-27 17:21 49.47270 73.50333 34621 ft 448 kts 336°
2026-04-27 17:21 49.50174 73.48585 34386 ft 448 kts 336°
2026-04-27 17:22 49.53082 73.46834 34118 ft 448 kts 336°
2026-04-27 17:22 49.55986 73.45083 33849 ft 449 kts 336°
2026-04-27 17:22 49.58900 73.43325 33576 ft 449 kts 336°
2026-04-27 17:22 49.61780 73.41457 33304 ft 449 kts 333°
2026-04-27 17:23 49.64584 73.39341 33034 ft 448 kts 330°
2026-04-27 17:23 49.67302 73.36978 32773 ft 448 kts 327°
2026-04-27 17:23 49.69922 73.34378 32515 ft 448 kts 324°
2026-04-27 17:23 49.72446 73.31542 32249 ft 448 kts 321°
2026-04-27 17:24 49.74859 73.28485 31956 ft 448 kts 318°
2026-04-27 17:24 49.77177 73.25247 31564 ft 449 kts 316°
2026-04-27 17:24 49.79468 73.21955 31056 ft 450 kts 316°
2026-04-27 17:24 49.81757 73.18642 30454 ft 450 kts 316°
2026-04-27 17:25 49.84014 73.15370 29747 ft 450 kts 316°
2026-04-27 17:25 49.86300 73.12057 29093 ft 449 kts 316°
2026-04-27 17:25 49.88577 73.08753 28465 ft 447 kts 317°
2026-04-27 17:25 49.90842 73.05465 28036 ft 445 kts 317°
2026-04-27 17:26 49.93097 73.02190 27675 ft 443 kts 317°
2026-04-27 17:26 49.95341 72.98927 27298 ft 441 kts 317°
2026-04-27 17:26 49.97573 72.95677 26915 ft 438 kts 317°
2026-04-27 17:26 49.99789 72.92445 26504 ft 435 kts 317°
2026-04-27 17:27 50.01985 72.89238 26089 ft 432 kts 317°
2026-04-27 17:27 50.04165 72.86047 25671 ft 429 kts 317°
2026-04-27 17:27 50.06331 72.82873 25271 ft 426 kts 317°
2026-04-27 17:27 50.08479 72.79721 24882 ft 422 kts 317°
2026-04-27 17:28 50.10605 72.76600 24503 ft 419 kts 317°
2026-04-27 17:28 50.12720 72.73491 24105 ft 416 kts 317°
2026-04-27 17:28 50.16930 72.67406 23222 ft 409 kts 321°
2026-04-27 17:29 50.19181 72.64739 22786 ft 405 kts 326°
2026-04-27 17:29 50.21562 72.62432 22341 ft 401 kts 331°
2026-04-27 17:29 50.24023 72.60411 21930 ft 398 kts 333°
2026-04-27 17:29 50.26483 72.58465 21483 ft 395 kts 333°
2026-04-27 17:30 50.28931 72.56540 21056 ft 392 kts 333°
2026-04-27 17:30 50.33767 72.52727 20220 ft 386 kts 333°
2026-04-27 17:30 50.36158 72.50834 19803 ft 383 kts 333°
2026-04-27 17:31 50.38496 72.48981 19374 ft 381 kts 333°
2026-04-27 17:31 50.40882 72.47085 18963 ft 378 kts 333°
2026-04-27 17:31 50.43216 72.45229 18533 ft 375 kts 333°
2026-04-27 17:31 50.45536 72.43381 18076 ft 372 kts 333°
2026-04-27 17:32 50.47817 72.41561 17859 ft 361 kts 333°
2026-04-27 17:32 50.52130 72.38116 17649 ft 335 kts 333°
2026-04-27 17:32 50.54144 72.36504 17554 ft 323 kts 333°
2026-04-27 17:33 50.56104 72.34935 17455 ft 311 kts 333°
2026-04-27 17:33 50.58021 72.33399 17347 ft 299 kts 333°
2026-04-27 17:33 50.59828 72.31951 17093 ft 295 kts 333°
2026-04-27 17:33 50.61658 72.30482 16691 ft 295 kts 333°
2026-04-27 17:34 50.63486 72.29014 16318 ft 295 kts 333°
2026-04-27 17:34 50.65313 72.27544 15948 ft 295 kts 332°
2026-04-27 17:34 50.67139 72.26074 15568 ft 294 kts 332°
2026-04-27 17:34 50.68963 72.24605 15204 ft 294 kts 332°
2026-04-27 17:35 50.70785 72.23136 14835 ft 294 kts 332°
2026-04-27 17:35 50.72601 72.21671 14469 ft 292 kts 332°
2026-04-27 17:35 50.74413 72.20208 14185 ft 292 kts 332°
2026-04-27 17:35 50.76223 72.18747 13861 ft 292 kts 332°
2026-04-27 17:36 50.78022 72.17292 13489 ft 289 kts 332°
2026-04-27 17:36 50.79807 72.15846 13137 ft 287 kts 332°
2026-04-27 17:36 50.81573 72.14414 12795 ft 284 kts 332°
2026-04-27 17:36 50.83327 72.12991 12453 ft 282 kts 332°
2026-04-27 17:37 50.85065 72.11579 12103 ft 280 kts 332°
2026-04-27 17:37 50.86792 72.10175 11763 ft 278 kts 332°
2026-04-27 17:37 50.88508 72.08778 11425 ft 276 kts 332°
2026-04-27 17:37 50.90215 72.07389 11089 ft 275 kts 332°
2026-04-27 17:38 50.91912 72.06007 10755 ft 274 kts 332°
2026-04-27 17:38 50.93601 72.04630 10420 ft 272 kts 332°
2026-04-27 17:38 50.95285 72.03255 10095 ft 271 kts 332°
2026-04-27 17:38 50.96962 72.01887 9737 ft 270 kts 333°
2026-04-27 17:39 50.98632 72.00522 9381 ft 269 kts 333°
2026-04-27 17:39 51.00295 71.99162 9033 ft 268 kts 333°
2026-04-27 17:39 51.01964 71.97797 8701 ft 268 kts 333°
2026-04-27 17:39 51.03616 71.96444 8364 ft 267 kts 333°
2026-04-27 17:40 51.05266 71.95092 8031 ft 266 kts 333°
2026-04-27 17:40 51.06908 71.93746 7732 ft 265 kts 333°
2026-04-27 17:40 51.08537 71.92408 7448 ft 263 kts 333°
2026-04-27 17:40 51.10161 71.91072 7162 ft 262 kts 333°
2026-04-27 17:41 51.11763 71.89756 7020 ft 254 kts 333°
2026-04-27 17:41 51.13285 71.88496 7004 ft 239 kts 330°
2026-04-27 17:41 51.14619 71.87032 6868 ft 228 kts 320°
2026-04-27 17:41 51.15748 71.85357 6626 ft 221 kts 315°
2026-04-27 17:42 51.16818 71.83639 6388 ft 215 kts 314°
2026-04-27 17:42 51.17854 71.81955 6156 ft 210 kts 314°
2026-04-27 17:42 51.18864 71.80319 5915 ft 204 kts 314°
2026-04-27 17:42 51.19786 71.78640 5687 ft 199 kts 298°
2026-04-27 17:43 51.20149 71.76579 5463 ft 191 kts 267°
2026-04-27 17:43 51.19762 71.74594 5292 ft 189 kts 239°
2026-04-27 17:43 51.18971 71.72925 5136 ft 188 kts 229°
2026-04-27 17:43 51.18084 71.71385 4980 ft 188 kts 226°
2026-04-27 17:44 51.17468 71.70374 4859 ft 188 kts 225°
2026-04-27 17:44 51.16543 71.68898 4705 ft 188 kts 224°
2026-04-27 17:44 51.15613 71.67432 4533 ft 188 kts 224°
2026-04-27 17:44 51.14675 71.65975 4370 ft 188 kts 223°
2026-04-27 17:45 51.13736 71.64523 4108 ft 188 kts 224°
2026-04-27 17:45 51.12803 71.63076 3853 ft 186 kts 224°
2026-04-27 17:45 51.11880 71.61637 3592 ft 185 kts 224°
2026-04-27 17:45 51.10958 71.60199 3345 ft 185 kts 224°
2026-04-27 17:46 51.10049 71.58784 3095 ft 185 kts 224°
2026-04-27 17:46 51.09127 71.57351 2849 ft 185 kts 224°
2026-04-27 17:46 51.08213 71.55925 2595 ft 180 kts 224°
2026-04-27 17:46 51.07348 71.54572 2334 ft 168 kts 224°
2026-04-27 17:47 51.06540 71.53311 2096 ft 160 kts 225°
2026-04-27 17:47 51.06006 71.52477 1926 ft 158 kts 224°
2026-04-27 17:47 51.04976 71.50853 1647 ft 156 kts 224°
2026-04-27 17:47 51.04202 71.49647 1446 ft 156 kts 224°
2026-04-27 17:48 51.03429 71.48451 1225 ft 154 kts 224°
2026-04-27 17:48 51.02726 71.47358 1173 ft 115 kts 225°
2026-04-27 17:48 51.02312 71.46710 1174 ft 52 kts 225°
2026-04-27 17:48 51.02159 71.46468 1174 ft 27 kts 225°
2026-04-27 17:49 51.02019 71.46252 1173 ft 29 kts 224°
2026-04-27 17:49 51.01858 71.46003 1177 ft 33 kts 224°
2026-04-27 17:49 51.01711 71.45776 1179 ft 15 kts 225°
2026-04-27 17:49 51.01707 71.45631 1177 ft 17 kts 317°
2026-04-27 17:50 51.01788 71.45513 1177 ft 11 kts 333°
2026-04-27 17:50 51.01952 71.45685 1177 ft 19 kts 44°
2026-04-27 17:50 51.02055 71.45844 1172 ft 22 kts 45°
2026-04-27 17:51 51.02168 71.46023 1173 ft 24 kts 45°
2026-04-27 17:51 51.02277 71.46194 1174 ft 15 kts 44°
2026-04-27 17:51 51.02369 71.46216 1171 ft 17 kts 315°
2026-04-27 17:51 51.02447 71.46094 1172 ft 13 kts 336°
2026-04-27 17:52 51.02533 71.46165 1175 ft 15 kts 45°
2026-04-27 17:52 51.02597 71.46265 1174 ft 6 kts 37°
2026-04-27 17:52 51.02637 71.46260 1170 ft 4 kts 333°
2026-04-27 17:52 51.02645 71.46250 1175 ft 0 kts 319°